Погода в Алыкеле

Россия / Красноярский край     69°22′47″N   87°23′15″E
темп.,
°C
ветер,
м/с
пор.,
м/с
влажн.,
%
обл.,
%
осадки,
мм/ч
давл.,
гПа
погр.,
м
20 июня, вс
вс2001:00+3ссв6109599 2.8 997278
04:00+3ссв4796100 0.3 997212
07:00+4сз1195100 0.3 99891
10:00+6зюз249298 0.0 1000252
13:00+6сз3391100 0.2 1001242
16:00+5ссв3498100 8.0 1001184
19:00+5с3597100 6.8 1003272
22:00+5с2597100 0.6 1004198
21 июня, пн
пн2101:00+5ссз3695100 0.7 1006265
04:00+4ссз3694100 0.1 1007293
07:00+4ссз4691100 0.1 1009397
10:00+5ссз4688100 0.0 1011601
13:00+6ссв567599 0.1 1013857
16:00+9ссв575994 0.0 10131075
19:00+9ссв5751100 0.0 10141095
22:00+8ссв4963100 0.0 1014382
22 июня, вт
вт2201:00+6ссв61369100 0.0 1014423
04:00+6ссв101767100 0.0 1012636
07:00+7ссв121761100 0.0 1011725
10:00+8ссв111663100 0.0 1011670
13:00+8ссв121671100 0.2 1010592
16:00+5ссв91487100 1.6 1010466
19:00+6ссв71088100 2.6 1010273
22:00+6ссв5789100 0.3 1011199
23 июня, ср
ср2301:00+6ссв238997 0.3 101293
04:00+6с118767 0.0 101336
07:00+9зсз1279100 0.0 1013186
10:00+12ссз1170100 0.0 1014366
13:00+14зсз2266100 0.0 1014472
16:00+16сз226063 0.0 1013650
19:00+18сз335811 0.0 1013798
22:00+15з45695 0.0 1013208
24 июня, чт
чт2401:00+12зсз478063 0.0 1013133
04:00+10з247878 0.0 1013142
07:00+12сз457098 0.0 1013474
10:00+14ссз456037 0.0 1013806
13:00+17ссз454991 0.0 10131197
16:00+18ссз5538100 0.0 10131338
19:00+16ссз5543100 0.0 10131219
22:00+13с5751100 0.0 1014389